This is the latest recevied weather packets stored in our database for station/object KM5R. If no packets are shown the sender has not sent any weather packets the latest 10 day(s).
| Time | Temp. | Humidity | Pressure | Rain* | Wind** | Luminosity | Snow |
|---|---|---|---|---|---|---|---|
| 1777930509 | 27.22° C | 57% | 1010.2 hPa | 0 mm | - | 489 W/m² | - |
| 1777930206 | 27.22° C | 56% | 1010.3 hPa | 0 mm | - | 420 W/m² | - |
| 1777929902 | 27.22° C | 55% | 1010.4 hPa | 0 mm | - | 611 W/m² | - |
| 1777929599 | 26.67° C | 57% | 1010.6 hPa | 0 mm | - | 519 W/m² | - |
| 1777929296 | 27.22° C | 56% | 1010.7 hPa | 0 mm | - | 442 W/m² | - |
| 1777928993 | 27.22° C | 55% | 1010.7 hPa | 0 mm | - | 566 W/m² | - |
| 1777928690 | 26.67° C | 57% | 1011 hPa | 0 mm | - | 638 W/m² | - |
| 1777928387 | 26.11° C | 57% | 1010.8 hPa | 0 mm | - | 508 W/m² | - |
| 1777928084 | 26.67° C | 57% | 1011 hPa | 0 mm | - | 395 W/m² | - |
| 1777927782 | 26.67° C | 57% | 1011.1 hPa | 0 mm | - | 350 W/m² | - |
| 1777927480 | 26.67° C | 57% | 1011.2 hPa | 0 mm | - | 515 W/m² | - |
| 1777927180 | 26.11° C | 58% | 1011.2 hPa | 0 mm | - | 502 W/m² | - |
| 1777926877 | 26.11° C | 58% | 1011.4 hPa | 0 mm | - | 511 W/m² | - |
| 1777926573 | 26.11° C | 58% | 1011.6 hPa | 0 mm | - | 601 W/m² | - |
| 1777926269 | 26.11° C | 58% | 1011.9 hPa | 0 mm | - | 575 W/m² | - |
| 1777925966 | 26.11° C | 58% | 1011.7 hPa | 0 mm | - | 417 W/m² | - |
| 1777925664 | 26.11° C | 59% | 1012 hPa | 0 mm | - | 366 W/m² | - |
| 1777925361 | 26.11° C | 58% | 1011.8 hPa | 0 mm | - | 471 W/m² | - |
| 1777925057 | 26.11° C | 59% | 1012 hPa | 0 mm | - | 558 W/m² | - |
| 1777924754 | 26.11° C | 59% | 1012.1 hPa | 0 mm | - | 430 W/m² | - |
| 1777924450 | 26.11° C | 58% | 1012.3 hPa | 0 mm | - | 609 W/m² | - |
| 1777924147 | 26.11° C | 58% | 1012.6 hPa | 0 mm | - | 482 W/m² | - |
| 1777923842 | 25.56° C | 59% | 1012.9 hPa | 0 mm | - | 571 W/m² | - |
| 1777923539 | 26.11° C | 58% | 1012.6 hPa | 0 mm | - | 507 W/m² | - |
| 1777923236 | 25.56° C | 59% | 1012.7 hPa | 0 mm | - | 700 W/m² | - |
* Rain latest hour (hover to see other rain measurements)
** Current wind speed in m/s (hover to see current wind gust speed)